User: anonymous   Login
Location: Unspecified
(0.0000°N, 0.0000°E)
Time: 22:49:14
(UTC+00:00)
Language:

PERSEUS M2 - Orbit

View from above orbital plane
View from above orbital plane
View from above satellite
View from above satellite

Ground track
Ground track

The orbit data is extracted from the following two-line orbital elements,

1 40037U 14033AD  17113.79452125 +.00000390 +00000-0 +50580-4 0  9997
2 40037 097.9157 022.8302 0015679 120.7883 239.4878 14.86204767153733
Epoch (UTC): 23 April 2017 19:04:06
Eccentricity: 0.0015679
inclination: 97.9157°
perigee height: 599 km
apogee height: 621 km
right ascension of ascending node: 22.8302°
argument of perigee: 120.7883°
revolutions per day: 14.86204767
mean anomaly at epoch: 239.4878°
orbit number at epoch: 15373

The dashed part of the orbit path shows where the satellite is in the earth's shadow,  

DLR